When you browse on this site, cookies collect data to enhance your experience and personalize the content and advertising you see.
Visit our Privacy Policy to learn more. By continuing to use the site, you agree to this use of cookies and data.
  • In Deutschland
  • Länderverzeichnis
  • Für 7 Tage
  • Wassertemperatur
  • Wetterkarte
  • Widgets
  • user-avatar
    Anmelden

    Stündliche Wetter Andora

    Heute, 25 August, Sonntag

    Zeit Temperatur Niederschläge Wind Luftdruck Luftfeuchtigkeit
    00:00 +13°C° 0 mm 1 m/S 627 mmHg 73%
    01:00 +13°C° 0 mm 1 m/S 627 mmHg 71%
    02:00 +13°C° 0 mm 2 m/S 627 mmHg 69%
    03:00 +13°C° 0 mm 2 m/S 627 mmHg 67%
    04:00 +13°C° 0 mm 1 m/S 627 mmHg 66%
    05:00 +13°C° 0 mm 1 m/S 627 mmHg 65%
    06:00 +13°C° 0 mm 2 m/S 627 mmHg 65%
    07:00 +16°C° 0 mm 1 m/S 628 mmHg 57%
    08:00 +20°C° 0 mm 1 m/S 629 mmHg 48%
    09:00 +23°C° 0 mm 1 m/S 631 mmHg 40%
    10:00 +23°C° 0 mm 1 m/S 631 mmHg 39%
    11:00 +24°C° 0 mm 1 m/S 631 mmHg 38%
    12:00 +24°C° 0 mm 2 m/S 631 mmHg 37%
    13:00 +24°C° 0 mm 2 m/S 630 mmHg 39%
    14:00 +24°C° 0 mm 2 m/S 630 mmHg 42%
    15:00 +23°C° 0 mm 1 m/S 629 mmHg 44%
    16:00 +22°C° 0 mm 1 m/S 629 mmHg 52%
    17:00 +20°C° 0 mm 1 m/S 628 mmHg 59%
    18:00 +19°C° 0 mm 1 m/S 627 mmHg 67%
    19:00 +18°C° 0 mm 1 m/S 627 mmHg 71%
    20:00 +15°C° 0 mm 1 m/S 627 mmHg 74%
    21:00 +14°C° 0 mm 1 m/S 627 mmHg 77%
    22:00 +14°C° 0 mm 1 m/S 627 mmHg 79%
    23:00 +14°C° 0 mm 1 m/S 626 mmHg 81%

    Morgen, 26 August, Montag

    Zeit Temperatur Niederschläge Wind Luftdruck Luftfeuchtigkeit
    00:00 +13°C° 0 mm 1 m/S 626 mmHg 82%
    01:00 +13°C° 0 mm 1 m/S 626 mmHg 82%
    02:00 +13°C° 0 mm 1 m/S 626 mmHg 81%
    03:00 +13°C° 0 mm 1 m/S 626 mmHg 81%
    04:00 +13°C° 0 mm 1 m/S 626 mmHg 79%
    05:00 +13°C° 0 mm 1 m/S 626 mmHg 77%
    06:00 +13°C° 0 mm 1 m/S 626 mmHg 76%
    07:00 +15°C° 0 mm 1 m/S 627 mmHg 64%
    08:00 +18°C° 0 mm 2 m/S 628 mmHg 51%
    09:00 +20°C° 0 mm 2 m/S 629 mmHg 39%
    10:00 +21°C° 0 mm 2 m/S 629 mmHg 37%
    11:00 +23°C° 0 mm 2 m/S 629 mmHg 35%
    12:00 +24°C° 0 mm 3 m/S 629 mmHg 32%
    13:00 +24°C° 0 mm 3 m/S 629 mmHg 33%
    14:00 +24°C° 0 mm 3 m/S 628 mmHg 34%
    15:00 +24°C° 0 mm 3 m/S 628 mmHg 34%
    16:00 +21°C° 0 mm 3 m/S 627 mmHg 42%
    17:00 +19°C° 0 mm 2 m/S 627 mmHg 49%
    18:00 +18°C° 0 mm 2 m/S 626 mmHg 57%
    19:00 +16°C° 0 mm 1 m/S 626 mmHg 60%
    20:00 +15°C° 0 mm 1 m/S 625 mmHg 64%
    21:00 +14°C° 0 mm 1 m/S 625 mmHg 67%
    22:00 +14°C° 0 mm 1 m/S 625 mmHg 67%
    23:00 +14°C° 0 mm 1 m/S 625 mmHg 67%

    übermorgen, 27 August, Dienstag

    Zeit Temperatur Niederschläge Wind Luftdruck Luftfeuchtigkeit
    00:00 +13°C° 0 mm 1 m/S 625 mmHg 67%
    01:00 +13°C° 0 mm 1 m/S 625 mmHg 68%
    02:00 +13°C° 0 mm 1 m/S 625 mmHg 68%
    03:00 +12°C° 0 mm 1 m/S 625 mmHg 69%
    04:00 +13°C° 0 mm 1 m/S 625 mmHg 69%
    05:00 +13°C° 0 mm 1 m/S 625 mmHg 68%
    06:00 +13°C° 0 mm 1 m/S 625 mmHg 67%
    07:00 +15°C° 0 mm 1 m/S 626 mmHg 63%
    08:00 +18°C° 0 mm 1 m/S 627 mmHg 58%
    09:00 +19°C° 0 mm 1 m/S 628 mmHg 53%
    10:00 +19°C° 0 mm 1 m/S 628 mmHg 57%
    11:00 +18°C° 0 mm 1 m/S 627 mmHg 60%
    12:00 +18°C° 0 mm 1 m/S 627 mmHg 63%
    13:00 +19°C° 0.1 mm 1 m/S 627 mmHg 60%
    14:00 +19°C° 0.1 mm 1 m/S 627 mmHg 57%
    15:00 +19°C° 0.1 mm 2 m/S 627 mmHg 55%
    16:00 +19°C° 0.1 mm 1 m/S 627 mmHg 61%
    17:00 +18°C° 0.1 mm 1 m/S 626 mmHg 68%
    18:00 +16°C° 0.1 mm 1 m/S 626 mmHg 75%
    19:00 +15°C° 0.1 mm 1 m/S 626 mmHg 79%
    20:00 +13°C° 0.1 mm 1 m/S 626 mmHg 82%
    21:00 +12°C° 0.1 mm 1 m/S 626 mmHg 86%
    22:00 +12°C° 0 mm 1 m/S 626 mmHg 86%
    23:00 +12°C° 0 mm 1 m/S 626 mmHg 86%

    28 August, Mittwoch

    Zeit Temperatur Niederschläge Wind Luftdruck Luftfeuchtigkeit
    00:00 +12°C° 0 mm 1 m/S 625 mmHg 85%
    01:00 +11°C° 0 mm 1 m/S 625 mmHg 86%
    02:00 +11°C° 0 mm 1 m/S 625 mmHg 86%
    03:00 +11°C° 0 mm 1 m/S 625 mmHg 86%
    04:00 +11°C° 0 mm 1 m/S 625 mmHg 85%
    05:00 +12°C° 0 mm 1 m/S 626 mmHg 84%
    06:00 +12°C° 0 mm 1 m/S 626 mmHg 83%
    07:00 +15°C° 0 mm 1 m/S 627 mmHg 73%
    08:00 +19°C° 0 mm 1 m/S 628 mmHg 62%
    09:00 +20°C° 0 mm 0 m/S 629 mmHg 52%
    10:00 +22°C° 0.1 mm 1 m/S 629 mmHg 50%
    11:00 +23°C° 0.1 mm 2 m/S 629 mmHg 49%
    12:00 +23°C° 0.1 mm 2 m/S 629 mmHg 47%
    13:00 +21°C° 0.5 mm 2 m/S 629 mmHg 53%
    14:00 +22°C° 0.5 mm 1 m/S 628 mmHg 59%
    15:00 +21°C° 0.5 mm 1 m/S 628 mmHg 64%
    16:00 +20°C° 0.4 mm 1 m/S 627 mmHg 69%
    17:00 +17°C° 0.4 mm 0 m/S 627 mmHg 74%
    18:00 +16°C° 0.4 mm 0 m/S 627 mmHg 78%
    19:00 +16°C° 0 mm 1 m/S 627 mmHg 81%
    20:00 +15°C° 0 mm 1 m/S 626 mmHg 83%
    21:00 +13°C° 0 mm 1 m/S 626 mmHg 85%
    22:00 +13°C° 0 mm 1 m/S 626 mmHg 85%
    23:00 +13°C° 0 mm 1 m/S 626 mmHg 85%

    29 August, Donnerstag

    Zeit Temperatur Niederschläge Wind Luftdruck Luftfeuchtigkeit
    00:00 +13°C° 0 mm 1 m/S 626 mmHg 84%
    01:00 +13°C° 0 mm 1 m/S 627 mmHg 84%
    02:00 +13°C° 0 mm 1 m/S 627 mmHg 83%
    03:00 +13°C° 0 mm 1 m/S 627 mmHg 83%
    04:00 +13°C° 0 mm 1 m/S 627 mmHg 82%
    05:00 +13°C° 0 mm 1 m/S 627 mmHg 81%
    06:00 +13°C° 0 mm 1 m/S 627 mmHg 81%
    07:00 +16°C° 0 mm 1 m/S 628 mmHg 73%
    08:00 +19°C° 0 mm 1 m/S 630 mmHg 65%
    09:00 +22°C° 0 mm 1 m/S 631 mmHg 57%
    10:00 +22°C° 0.2 mm 1 m/S 631 mmHg 54%
    11:00 +23°C° 0.2 mm 1 m/S 631 mmHg 52%
    12:00 +24°C° 0.2 mm 1 m/S 631 mmHg 49%
    13:00 +23°C° 0.8 mm 1 m/S 630 mmHg 55%
    14:00 +22°C° 0.8 mm 1 m/S 630 mmHg 61%
    15:00 +21°C° 0.8 mm 1 m/S 629 mmHg 67%
    16:00 +19°C° 0.6 mm 1 m/S 629 mmHg 73%
    17:00 +18°C° 0.6 mm 1 m/S 628 mmHg 78%
    18:00 +16°C° 0.6 mm 1 m/S 628 mmHg 84%
    19:00 +15°C° 0.2 mm 1 m/S 628 mmHg 84%
    20:00 +15°C° 0.2 mm 1 m/S 628 mmHg 83%
    21:00 +14°C° 0.2 mm 1 m/S 628 mmHg 82%
    22:00 +14°C° 0.1 mm 1 m/S 628 mmHg 82%
    23:00 +14°C° 0.1 mm 1 m/S 628 mmHg 81%

    30 August, Freitag

    Zeit Temperatur Niederschläge Wind Luftdruck Luftfeuchtigkeit
    00:00 +13°C° 0.1 mm 1 m/S 628 mmHg 80%
    01:00 +13°C° 0.1 mm 1 m/S 628 mmHg 79%
    02:00 +13°C° 0.1 mm 1 m/S 627 mmHg 79%
    03:00 +13°C° 0.1 mm 1 m/S 627 mmHg 78%
    04:00 +13°C° 0.1 mm 1 m/S 627 mmHg 79%
    05:00 +13°C° 0.1 mm 1 m/S 628 mmHg 79%
    06:00 +14°C° 0.1 mm 1 m/S 628 mmHg 80%
    07:00 +16°C° 0.2 mm 1 m/S 629 mmHg 73%
    08:00 +19°C° 0.2 mm 1 m/S 630 mmHg 67%
    09:00 +21°C° 0.2 mm 1 m/S 630 mmHg 60%
    10:00 +22°C° 0.6 mm 1 m/S 630 mmHg 58%
    11:00 +23°C° 0.6 mm 1 m/S 630 mmHg 55%
    12:00 +23°C° 0.6 mm 1 m/S 630 mmHg 53%
    13:00 +23°C° 0.7 mm 1 m/S 630 mmHg 56%
    14:00 +22°C° 0.7 mm 1 m/S 629 mmHg 58%
    15:00 +21°C° 0.7 mm 1 m/S 628 mmHg 61%
    16:00 +19°C° 1.5 mm 1 m/S 628 mmHg 69%
    17:00 +17°C° 1.5 mm 2 m/S 627 mmHg 77%
    18:00 +15°C° 1.5 mm 2 m/S 626 mmHg 85%
    19:00 +14°C° 0.3 mm 2 m/S 626 mmHg 84%
    20:00 +13°C° 0.3 mm 2 m/S 626 mmHg 82%
    21:00 +13°C° 0.3 mm 2 m/S 626 mmHg 80%
    22:00 +13°C° 0 mm 2 m/S 626 mmHg 77%
    23:00 +13°C° 0 mm 2 m/S 626 mmHg 73%
    Mehr zeigen